User: anonymous   Login
Location: Caltech
(34.1382°N, 118.1253°W)
Time: 04:41:20
(UTC-08:00)
Language:

JAS-1B - Orbit

View from above orbital plane
View from above orbital plane
View from above satellite
View from above satellite

Ground track
Ground track

The orbit data is extracted from the following two-line orbital elements,

1 20480U 90013C   16044.85627468 -.00000036  00000-0 -14110-4 0  9990
2 20480  99.0351 264.6753 0540885  60.1754   4.3080 12.83409463218959
Epoch (UTC): 13 February 2016 20:33:02
Eccentricity: 0.0540885
inclination: 99.0351°
perigee height: 911 km
apogee height: 1744 km
right ascension of ascending node: 264.6753°
argument of perigee: 60.1754°
revolutions per day: 12.83409463
mean anomaly at epoch: 4.3080°
orbit number at epoch: 21895

The dashed part of the orbit path shows where the satellite is in the earth's shadow,  

DLR